Location: Dehesa de la Cepeda
(40.6574°N, 4.3013°W)
Time: 10:32:52
(UTC+00:00)

Vanguard 2 Rocket - Pass Details

Date: 25 October 2021
Orbit: 555 x 3324 km, 32.9° (Epoch: 08 December)

Event Time Altitude Azimuth Distance (km) Brightness Sun altitude
Exits shadow 03:42:50 15° 201° (SSW) 5,267 10.4 -34.0°
Maximum altitude 03:53:23 30° 155° (SSE) 3,548 9.9 -32.0°
Drops below altitude 10° 04:02:33 10° 100° (E) 3,972 10.9 -30.3°
Sets 04:05:41 0° 90° (E) 4,600 11.7 -29.7°
